User: anonymous   Login
Location: Unspecified
(0.0000°N, 0.0000°E)
Time: 14:45:42
(UTC+01:00)
Language:

ARIANE 5 R/B - Orbit

View from above orbital plane
View from above orbital plane
View from above satellite
View from above satellite

Ground track
Ground track

The orbit data is extracted from the following two-line orbital elements,

1 29646U 06054D   16345.23596654  .00001046  00000-0  37882-3 0  9993
2 29646   2.9254  46.9841 7092622 148.9181 284.8404  2.50845683 86974
Epoch (UTC): 10 December 2016 05:39:47
Eccentricity: 0.7092622
inclination: 2.9254°
perigee height: 274 km
apogee height: 32730 km
right ascension of ascending node: 46.9841°
argument of perigee: 148.9181°
revolutions per day: 2.50845683
mean anomaly at epoch: 284.8404°
orbit number at epoch: 8697

The dashed part of the orbit path shows where the satellite is in the earth's shadow,  

DLR